Regional Weather Roundup
Issued by NWS State College, PA

Home | Current Version | Previous Version | Text Only | Print | Product List | Glossary Off
Versions: 1 2 3 4 5 6 7 8 9 10 11 12 13 14 15 16 17 18 19 20 21 22 23 24 25 26 27 28 29 30 31 32 33 34 35 36 37 38 39 40 41 42 43 44 45 46 47 48 49 50

000
ASUS41 KCTP 300203
RWRCTP

REGIONAL WEATHER ROUNDUP
NATIONAL WEATHER SERVICE STATE COLLEGE PA
1000 PM EDT SAT AUG 29 2015

Note: "fair" indicates few or no clouds below 12,000 feet with no
significant weather and/or obstructions to visibility.

* = STATION THAT DOES NOT REPORT PRECIPITATION /E.G. RAIN...SNOW...ETC/
    THUNDER OR FOG.

PAZ002>004-007>009-013>016-020>023-029>032-300300-
WESTERN PENNSYLVANIA

CITY           SKY/WX    TMP DP  RH WIND       PRES   REMARKS
ERIE           LGT RAIN  71  60  68 S3        30.09R
MEADVILLE      LGT RAIN  71  61  70 NW5       30.13R
FRANKLIN*      CLOUDY    70  63  78 S6        30.14F
NEW CASTLE     FAIR      68  68 100 CALM      30.11R FOG
BEAVER COUNTY  NOT AVBL
BUTLER*        MOCLDY    72  63  73 NE3       30.14R
PITTSBURGH INT MOCLDY    76  63  64 S3        30.11R
PITTSBURGH     CLOUDY    77  56  48 S3        30.11R
INDIANA*       CLOUDY    66  61  82 CALM      30.16R
LATROBE        PTCLDY    68  64  88 CALM      30.13R
WASHINGTON CO* PTCLDY    64  63  94 CALM      30.12S
$$

PAZ004>006-010>012-017>019-024>028-033>037-041-042-045-046-049>053-300300-
CENTRAL PENNSYLVANIA

CITY           SKY/WX    TMP DP  RH WIND       PRES   REMARKS
BRADFORD       PTCLDY    61  56  83 CALM      30.16R
DUBOIS         PTCLDY    72  57  59 CALM      30.14R
CLEARFIELD     CLEAR     64  58  80 N5        30.15R
JOHNSTOWN      PTCLDY    70  54  56 SE3       30.18R
ALTOONA        CLEAR     64  57  78 NW3       30.15R
STATE COLLEGE  NOT AVBL
WILLIAMSPORT   PTCLDY    67  61  81 CALM      30.10R
SELINSGROVE    PTCLDY    63  60  90 CALM      30.11R
FT INDIANTOWN  MOCLDY    69  64  85 NW1       30.12R
CAPITAL CITY   MOCLDY    76  64  66 S7        30.10R
HARRISBURG     MOCLDY    76  65  68 S3        30.10R
YORK           MOCLDY    71  65  81 CALM      30.12R
$$

PAZ038>040-043-044-047-048-054-055-060>062-067>071-300300-
EASTERN PENNSYLVANIA

CITY           SKY/WX    TMP DP  RH WIND       PRES   REMARKS
SCRANTON       CLEAR     69  58  67 SE3       30.12R
MOUNT POCONO   CLEAR     61  58  90 CALM      30.17R
ALLENTOWN      PTCLDY    70  62  76 SW5       30.10S
QUAKERTOWN*    CLEAR     68  63  83 SW3       30.13S
READING        PTCLDY    74  63  68 CALM      30.10S
LANCASTER      MOCLDY    72  64  76 SE3       30.12R
COATESVILLE    MOCLDY    70  66  88 CALM      30.14S
POTTSTOWN      PTCLDY    73  64  73 S5        30.13S
BLUE BELL      PTCLDY    75  63  64 S6        30.12R
DOYLESTOWN     PTCLDY    73  63  70 S5        30.12R
WILLOW GROVE   NOT AVBL
NORTH PHILA    PTCLDY    78  57  48 SW8       30.13R
PHILADELPHIA   MOCLDY    76  61  59 SW6       30.13R
$$



USA.gov is the U.S. government's official web portal to all federal, state and local government web resources and services.